Hourly Data Report for October 23, 2013

All times are specified in Local Standard Time (LST). Add 1 hour to adjust for Daylight Saving Time where and when it is observed.

EMERSON AUTO
MANITOBA

49°00'00.000" N
97°14'15.000" W
242.00 m
5020881
71560
WEX

Download Data

Hourly Data (October 2013)
Hourly Data Report for October 23, 2013
Temp Definition
°C
Dew Point Temp Definition
°C
Rel Hum Definition
%
Wind Dir Definition
10's deg

Wind Spd Definition
km/h
Visibility Definition
km
Stn Press Definition
kPa
Hmdx Definition


Wind Chill Definition


Weather Definition


TIME
00:00 -2.0 -5.2 79 28 7   98.78   -5 LegendNANA
01:00 -1.7 -5.0 78 29 9   98.78   -5 LegendNANA
02:00 -1.8 -4.9 79 33 9   98.77   -5 LegendNANA
03:00 -4.1 -6.2 85 32 9   98.77   -8 LegendNANA
04:00 -2.8 -5.2 84 34 7   98.77   -6 LegendNANA
05:00 -3.5 -5.3 87 33 4   98.81   -5 LegendNANA
06:00 -5.8 -7.0 91 30 7   98.82   -9 LegendNANA
07:00 -4.6 -5.2 96 28 7   98.88   -8 LegendNANA
08:00 -2.3 -5.5 79 33 15   98.93   -7 LegendNANA
09:00 -1.2 -4.8 76 33 13   98.97   -5 LegendNANA
10:00 -0.4 -5.4 69 34 11   99.01   -4 LegendNANA
11:00 0.8 -5.1 65 32 11   99.02     LegendNANA
12:00 1.4 -4.1 67 30 15   99.00     LegendNANA
13:00 2.3 -3.6 65 31 19   98.99     LegendNANA
14:00 2.4 -3.8 64 31 15   98.97     LegendNANA
15:00 2.3 -1.4 77 32 17   98.99     LegendNANA
16:00 3.2 -1.5 71 34 19   98.99     LegendNANA
17:00 1.6 -0.3 87 32 19   99.01     LegendNANA
18:00 1.7 0.0 88 31 13   99.02     LegendNANA
19:00 1.9 0.4 90 30 15   99.06     LegendNANA
20:00 1.7 0.6 92 32 15   99.07     LegendNANA
21:00 1.7 0.7 93 31 13   99.09     LegendNANA
22:00 1.0 0.0 93 29 9   99.10     LegendNANA
23:00 1.1 0.2 94 29 11   99.11     LegendNANA

Notes on Data Quality.

Legend

  • E = Estimated
  • M = Missing
  • NA = Not Available
  • ‡ = Partner data that is not subject to review by the National Climate Archives
Date modified: